Wind_Speed
36 37 37 38 38 38 39 39 40 41 41 42 42 42 42 43 44 44 45 45 45 46 47 48 49 50 51 51 51 51 51 52 52 53 52 51 51 50 50 49 49 48 47
36 37 37 38 38 38 38 38 39 40 40 40 41 41 42 43 43 44 45 46 46 47 47 48 49 50 51 52 52 53 53 52 52 53 52 53 52 51 51 50 49 49 49
35 36 36 36 36 37 37 37 38 38 39 39 40 41 42 43 44 45 46 46 47 47 48 48 49 50 50 51 52 53 54 53 53 53 53 53 52 52 52 51 50 50 50
33 34 34 35 34 34 35 35 36 36 37 38 39 40 41 42 44 45 46 47 47 47 47 47 48 49 49 50 50 51 52 53 52 53 54 55 54 53 52 51 51 51 51
32 32 32 33 33 32 32 33 33 33 34 36 37 38 39 40 41 42 43 43 44 44 45 45 46 47 48 48 49 50 50 52 52 52 53 55 55 54 54 53 51 51 51
31 31 30 30 31 31 32 32 32 32 33 34 35 37 38 39 39 39 41 42 43 43 43 43 45 45 46 47 48 49 49 51 52 52 52 53 54 53 54 54 53 52 51
29 28 28 28 29 30 31 31 31 31 32 33 34 35 36 37 38 38 39 40 41 42 42 43 44 44 44 45 45 46 47 48 50 51 51 52 53 54 54 55 53 52 51
25 26 26 26 27 28 29 31 31 31 32 33 34 34 34 34 35 34 35 36 38 39 41 42 43 43 43 43 43 43 43 44 46 48 49 50 51 51 52 52 52 53 52
23 24 25 25 26 27 29 30 30 31 31 32 31 31 31 32 32 32 33 34 35 37 38 39 40 41 40 40 40 42 42 43 45 46 47 48 47 47 48 50 51 52 52
23 23 24 24 26 27 28 29 29 29 29 29 29 28 29 30 31 31 31 33 33 33 33 35 37 38 39 40 40 41 42 43 45 47 47 47 48 48 49 50 52 52 52
21 22 23 24 24 25 26 26 27 27 27 27 26 26 26 27 28 28 29 30 30 31 32 33 34 36 37 38 39 40 41 42 44 46 46 47 49 49 50 50 51 53 53
20 21 21 22 22 22 22 23 23 24 24 24 24 24 24 25 26 26 27 27 27 28 29 31 32 33 33 35 36 38 39 40 41 43 45 47 48 49 49 50 51 51 52
19 19 19 19 19 20 20 20 20 21 22 22 22 23 23 23 24 24 25 25 25 25 26 27 28 29 30 32 34 36 37 38 40 43 45 46 47 48 50 51 51 51 51
17 17 17 18 18 19 19 19 18 19 21 22 22 21 21 21 22 22 22 23 23 23 23 24 26 27 29 31 33 35 37 37 38 40 42 44 45 47 49 50 50 50 50
17 17 17 17 17 18 18 18 18 18 19 19 19 19 20 20 21 21 21 22 22 23 23 25 26 27 29 31 32 34 35 36 37 37 39 41 43 44 46 47 49 49 50
16 16 16 16 16 16 16 16 16 16 16 16 17 18 19 19 20 21 22 23 24 24 25 26 27 28 29 30 31 32 33 34 35 37 38 40 42 43 44 46 46 47 48
15 15 15 16 16 16 15 15 15 16 16 17 17 19 20 21 22 22 23 23 24 26 27 27 28 29 29 30 31 32 32 34 35 37 39 41 40 42 43 45 45 45 45
15 15 15 15 16 16 16 16 16 17 17 18 20 21 22 23 23 24 24 25 26 27 28 29 29 29 30 31 32 33 34 35 36 37 38 39 39 41 42 43 44 44 44
15 15 16 16 16 16 17 18 19 19 20 20 21 22 23 24 24 24 25 26 27 28 29 30 31 31 31 32 33 35 35 36 36 37 38 39 41 41 43 43 44 43 42
16 16 17 17 18 18 19 20 21 21 21 22 23 23 23 25 26 26 27 28 29 30 31 32 32 33 34 34 35 35 35 36 36 37 37 39 40 41 42 43 43 42 42
18 18 19 19 20 21 21 22 23 23 24 24 24 25 26 27 28 28 29 29 30 31 32 32 33 33 34 34 34 34 35 35 36 35 35 37 38 39 40 40 39 39 39
20 21 22 22 23 23 24 25 25 26 26 27 27 28 29 29 30 30 30 31 32 32 33 33 33 34 34 34 34 34 35 35 35 35 35 35 35 36 36 36 36 36 37
23 24 24 25 25 26 26 27 28 28 28 29 30 30 31 31 32 32 32 32 33 33 34 34 34 34 35 35 35 35 36 35 35 34 34 34 34 34 33 34 34 33 34
26 26 26 27 28 28 28 28 29 30 31 31 32 33 33 33 34 34 34 35 35 35 36 36 36 36 36 36 36 36 36 35 34 33 32 32 32 33 32 32 33 33 33
27 28 28 29 29 30 30 31 32 32 33 34 34 34 35 35 36 36 37 37 37 38 38 38 38 38 38 38 38 38 37 35 34 34 33 33 33 33 33 33 33 33 33
29 30 30 30 31 31 32 33 33 34 35 36 36 36 36 37 37 38 38 39 39 39 39 39 40 40 40 40 40 39 38 37 37 35 34 34 34 34 34 33 33 33 33
Wind_Direction
258 259 262 264 265 266 267 267 267 267 267 268 268 268 268 268 267 266 266 266 266 267 265 263 262 262 261 261 261 260 258 257 257 257 257 257 258 260 262 262 263 263 264
260 262 264 265 266 267 266 267 267 267 268 268 269 270 269 268 267 266 266 267 268 267 266 265 263 261 261 260 260 260 259 258 258 258 257 256 257 258 260 261 262 263 263
261 263 265 266 266 267 267 267 267 268 269 270 270 271 271 270 269 267 267 267 268 268 267 266 263 262 261 260 260 260 259 257 257 257 257 256 257 258 258 259 260 262 262
264 265 265 266 266 267 267 267 268 269 269 270 272 273 273 272 271 269 268 268 269 269 268 266 264 263 262 260 260 260 259 256 256 257 256 257 257 257 257 258 260 262 262
264 265 266 266 266 267 268 268 270 270 271 272 274 275 276 274 273 272 271 270 269 268 267 266 265 263 261 260 260 260 259 256 255 256 256 256 257 257 258 259 260 260 261
264 264 265 266 266 267 268 269 271 273 275 277 277 278 277 276 275 273 271 270 269 269 267 266 265 264 262 261 260 260 260 258 256 256 256 257 257 258 259 260 259 260 260
264 264 265 266 268 268 268 270 272 275 277 278 279 279 279 278 277 276 274 273 271 270 268 266 265 264 264 263 261 261 261 259 257 256 256 257 258 258 259 259 259 260 261
263 264 265 267 269 269 270 272 274 277 279 281 281 281 281 279 278 277 275 275 274 271 269 269 267 265 265 265 263 262 262 260 257 256 256 257 258 259 260 260 260 260 260
263 265 266 268 271 272 272 274 276 278 280 282 282 280 281 280 278 279 278 277 276 275 271 269 269 267 265 264 264 262 263 262 259 257 257 257 258 259 261 261 261 262 261
266 267 269 271 274 275 275 276 277 279 282 282 282 283 283 281 281 280 282 281 279 277 274 271 269 268 267 267 267 266 266 264 260 257 258 258 259 260 262 263 262 262 262
269 270 272 274 277 279 278 278 278 281 283 284 284 284 286 285 284 283 284 284 282 279 277 274 272 271 270 270 269 269 269 267 262 260 260 260 259 260 263 264 264 264 264
273 275 277 279 280 282 283 281 280 282 284 286 285 286 288 287 286 287 288 287 285 283 281 277 274 273 271 272 272 272 270 268 265 262 262 262 261 262 264 265 267 267 266
277 279 281 282 283 284 285 285 284 285 287 288 287 288 289 289 289 290 290 290 290 287 287 283 279 277 276 276 276 275 273 271 268 265 264 265 263 264 265 266 267 267 268
280 282 283 284 287 288 288 288 288 290 291 291 289 288 291 291 293 294 294 292 291 292 291 288 285 282 280 280 279 277 275 274 273 269 267 267 266 266 267 268 268 268 268
281 282 283 286 287 289 290 290 291 293 296 296 295 293 295 296 295 297 297 296 295 295 293 291 289 289 287 284 282 281 279 276 275 273 270 270 269 268 269 269 269 268 267
283 283 284 286 288 290 291 291 292 295 298 300 302 301 300 300 299 299 299 299 298 297 295 294 294 294 292 289 287 287 284 280 277 274 273 273 273 271 271 271 271 271 270
285 285 287 288 288 290 294 294 294 296 298 301 304 307 305 302 302 302 301 301 300 298 297 296 296 297 297 295 292 289 289 285 282 279 277 276 276 274 272 272 272 273 273
287 286 287 290 290 291 293 295 295 296 297 299 301 304 305 305 303 302 301 301 300 299 298 298 298 297 297 296 295 293 292 290 287 284 281 279 279 277 276 275 274 274 274
288 286 288 290 291 293 294 295 296 296 297 300 302 304 305 306 305 303 302 302 302 301 300 299 298 297 296 295 295 294 293 293 291 288 284 281 280 279 279 278 276 275 274
286 287 289 290 290 292 295 296 298 297 298 300 303 305 306 307 306 304 304 303 302 303 302 300 299 297 297 296 297 296 294 293 292 289 286 283 283 280 279 279 276 274 274
285 286 288 290 291 292 295 296 298 296 297 299 301 304 305 306 307 305 303 303 303 304 304 303 302 301 300 299 299 297 294 294 293 292 289 286 284 282 281 280 278 276 274
286 285 286 289 290 292 293 294 296 297 298 298 299 301 302 303 305 306 304 303 304 304 304 304 304 303 302 300 300 300 298 296 295 293 292 290 288 286 283 281 279 278 276
286 287 286 288 290 292 293 294 295 296 297 298 298 299 300 301 302 304 304 303 303 304 305 304 304 305 304 301 300 301 301 298 296 294 293 291 289 288 286 284 282 280 278
286 287 287 288 290 291 293 293 294 295 296 297 297 297 298 299 301 302 303 302 301 302 303 303 303 303 303 302 301 302 301 299 297 295 293 293 293 291 289 288 285 283 282
287 287 288 289 290 291 292 292 294 295 296 296 297 297 297 298 300 301 302 302 301 301 302 302 302 301 301 300 300 300 300 298 297 295 292 292 292 292 291 290 288 287 285
286 287 288 288 289 290 291 293 294 295 296 296 296 297 297 298 298 299 301 302 302 301 301 302 302 301 300 299 298 298 298 298 296 295 293 292 291 290 290 289 288 287 286
Height
5728 5729 5730 5731 5731 5732 5732 5732 5733 5733 5733 5733 5733 5733 5733 5733 5733 5733 5733 5734 5735 5735 5736 5737 5739 5740 5742 5744 5745 5747 5750 5752 5754 5756 5759 5762 5764 5766 5768 5769 5771 5773 5775
5721 5722 5723 5723 5723 5723 5723 5724 5724 5724 5724 5724 5723 5723 5723 5723 5723 5723 5723 5723 5724 5724 5724 5725 5727 5728 5729 5731 5733 5735 5737 5740 5742 5744 5747 5749 5753 5754 5757 5758 5760 5762 5763
5714 5715 5715 5715 5715 5715 5715 5715 5715 5715 5715 5714 5714 5714 5713 5713 5712 5712 5712 5712 5712 5712 5712 5713 5714 5715 5716 5718 5720 5722 5724 5727 5729 5731 5734 5737 5740 5743 5745 5746 5748 5749 5751
5707 5707 5708 5708 5708 5708 5707 5707 5707 5707 5706 5705 5705 5704 5703 5702 5701 5701 5700 5700 5700 5699 5700 5700 5701 5703 5704 5706 5707 5709 5711 5714 5717 5719 5721 5724 5727 5730 5733 5735 5736 5737 5739
5700 5701 5701 5701 5700 5700 5700 5699 5699 5698 5697 5696 5695 5694 5693 5691 5690 5689 5688 5688 5687 5687 5687 5688 5689 5690 5692 5693 5695 5696 5698 5701 5704 5706 5708 5710 5713 5715 5718 5722 5725 5726 5727
5693 5694 5693 5693 5693 5693 5692 5692 5691 5690 5688 5687 5685 5684 5682 5681 5679 5678 5677 5677 5676 5676 5676 5676 5677 5678 5680 5681 5683 5684 5686 5688 5691 5694 5696 5698 5700 5702 5705 5708 5711 5713 5715
5687 5687 5687 5687 5686 5686 5685 5684 5684 5682 5681 5679 5677 5675 5673 5671 5670 5668 5667 5666 5665 5665 5665 5665 5666 5667 5668 5670 5671 5673 5674 5676 5679 5681 5683 5685 5687 5690 5692 5694 5697 5699 5702
5681 5680 5680 5680 5679 5678 5678 5677 5676 5675 5673 5671 5668 5666 5664 5662 5660 5659 5657 5656 5655 5655 5654 5654 5655 5656 5657 5658 5660 5661 5663 5664 5666 5668 5670 5673 5675 5677 5679 5681 5683 5685 5687
5674 5674 5674 5673 5672 5671 5671 5670 5668 5667 5665 5663 5661 5658 5656 5654 5652 5650 5649 5647 5646 5645 5644 5644 5644 5645 5647 5648 5649 5651 5652 5652 5654 5656 5658 5660 5662 5663 5665 5667 5669 5671 5673
5669 5668 5668 5667 5666 5665 5663 5662 5661 5659 5657 5655 5653 5651 5649 5647 5645 5643 5641 5639 5637 5636 5635 5635 5635 5636 5637 5638 5638 5639 5640 5641 5642 5644 5646 5647 5649 5651 5652 5654 5655 5656 5658
5663 5662 5661 5661 5659 5658 5656 5655 5654 5652 5651 5648 5646 5644 5642 5640 5637 5635 5633 5631 5629 5628 5627 5626 5626 5627 5627 5628 5628 5628 5628 5629 5630 5631 5633 5635 5636 5638 5639 5640 5641 5642 5643
5657 5657 5656 5655 5653 5652 5650 5648 5647 5646 5644 5642 5640 5638 5636 5633 5631 5629 5626 5624 5622 5620 5619 5618 5618 5618 5618 5618 5618 5618 5617 5617 5618 5619 5621 5622 5623 5625 5626 5627 5627 5628 5629
5652 5652 5651 5649 5648 5646 5644 5643 5641 5640 5638 5636 5634 5632 5630 5628 5625 5623 5620 5618 5616 5614 5612 5611 5611 5610 5610 5609 5609 5608 5607 5607 5607 5608 5609 5609 5610 5611 5612 5613 5613 5614 5614
5648 5647 5646 5645 5643 5641 5640 5638 5637 5635 5633 5631 5629 5627 5625 5622 5620 5617 5615 5613 5611 5609 5607 5606 5604 5603 5602 5601 5600 5599 5598 5597 5596 5596 5596 5596 5597 5597 5598 5598 5598 5599 5599
5644 5642 5641 5640 5639 5637 5636 5634 5632 5630 5628 5626 5624 5622 5620 5617 5615 5613 5610 5608 5606 5604 5602 5600 5599 5597 5595 5594 5591 5589 5587 5586 5586 5585 5585 5585 5584 5583 5583 5584 5584 5584 5584
5639 5638 5637 5636 5635 5633 5631 5630 5628 5626 5625 5622 5620 5618 5616 5613 5611 5609 5606 5604 5601 5599 5597 5595 5593 5590 5588 5585 5583 5580 5578 5577 5576 5575 5574 5573 5572 5571 5570 5570 5569 5568 5568
5636 5635 5633 5632 5630 5629 5627 5626 5624 5623 5621 5619 5617 5614 5612 5609 5606 5604 5601 5598 5596 5593 5591 5588 5586 5583 5580 5577 5575 5572 5570 5568 5566 5564 5563 5562 5560 5558 5558 5556 5555 5554 5553
5632 5631 5629 5628 5627 5625 5624 5622 5620 5618 5617 5615 5612 5610 5607 5604 5601 5599 5596 5593 5590 5587 5584 5582 5579 5576 5573 5569 5566 5563 5561 5558 5556 5553 5551 5550 5548 5546 5545 5543 5542 5541 5540
5628 5627 5626 5624 5623 5621 5619 5618 5616 5614 5612 5610 5607 5605 5602 5599 5596 5593 5590 5587 5584 5581 5577 5574 5571 5568 5565 5561 5558 5555 5552 5549 5546 5543 5540 5538 5536 5534 5532 5530 5529 5528 5527
5624 5623 5621 5620 5618 5617 5615 5613 5611 5609 5607 5604 5602 5599 5596 5593 5590 5587 5584 5581 5578 5574 5571 5567 5563 5560 5556 5553 5549 5545 5542 5539 5536 5532 5529 5527 5524 5521 5519 5517 5516 5515 5514
5619 5618 5617 5615 5614 5612 5610 5608 5606 5603 5601 5598 5596 5593 5590 5587 5584 5581 5577 5574 5571 5567 5563 5559 5555 5551 5547 5543 5539 5535 5531 5528 5525 5522 5519 5515 5512 5510 5507 5505 5503 5502 5501
5614 5613 5611 5610 5608 5606 5604 5602 5599 5597 5594 5592 5589 5586 5583 5580 5577 5574 5570 5566 5563 5559 5555 5551 5547 5542 5538 5534 5530 5526 5522 5518 5515 5512 5509 5505 5502 5499 5496 5494 5492 5491 5490
5608 5607 5605 5603 5601 5599 5597 5595 5593 5590 5587 5584 5582 5579 5576 5572 5569 5566 5562 5558 5554 5551 5547 5543 5538 5534 5529 5524 5520 5517 5513 5508 5505 5502 5499 5496 5493 5490 5487 5485 5482 5480 5479
5601 5600 5598 5596 5594 5592 5590 5587 5585 5582 5580 5577 5574 5570 5567 5564 5560 5556 5553 5549 5545 5541 5537 5533 5529 5525 5520 5515 5511 5507 5503 5499 5496 5492 5489 5486 5483 5480 5477 5475 5473 5471 5469
5594 5592 5590 5588 5586 5583 5581 5579 5576 5574 5571 5568 5565 5561 5558 5555 5551 5547 5543 5539 5535 5531 5527 5523 5519 5515 5511 5506 5501 5497 5494 5490 5486 5483 5480 5477 5473 5471 5468 5465 5463 5461 5460
5586 5584 5582 5580 5577 5575 5572 5570 5567 5564 5562 5558 5555 5552 5548 5545 5541 5537 5533 5528 5524 5520 5515 5511 5507 5503 5499 5495 5491 5487 5483 5479 5476 5473 5470 5467 5464 5461 5458 5456 5453 5451 5450